Location: General Nathan Twining Observatory
(34.5931°N, 106.8201°W)
Time: 04:37:29
(UTC-06:00)

ADEOS II - Visible Passes

Search period start: 01 April 2015 00:00
Search period end: 11 April 2015 00:00
Orbit: 800 x 803 km, 98.3° (Epoch: 31 March)

Date Brightness Start Highest point End Pass type
(mag) Time Alt. Az. Time Alt. Az. Time Alt. Az.
01 Apr 3.6 06:07:34 10° NNE 06:12:28 39° E 06:17:23 10° SSE visible
02 Apr 4.7 05:42:10 10° NE 05:46:06 22° E 05:50:10 10° SE visible
03 Apr 5.2 05:18:05 10° ENE 05:19:35 11° E 05:21:28 10° ESE visible
05 Apr 3.9 06:02:45 10° NNE 06:07:33 36° E 06:12:22 10° SSE visible
06 Apr 4.8 05:37:28 10° NE 05:41:09 20° E 05:45:00 10° SE visible
07 Apr 5.5 05:14:24 10° E 05:14:37 10° E 05:15:15 10° E visible
09 Apr 4.0 05:57:56 10° NE 06:02:36 32° E 06:07:19 10° SSE visible
10 Apr 4.9 05:32:47 10° NE 05:36:11 18° E 05:39:47 10° SE visible
